Location: B�hl
(48.6968°N, 8.1352°E)
Time: 19:52:46
(UTC+00:00)

CZ-4 R/B - Pass Details

Date: 08 March 2021
Orbit: 532 x 597 km, 97.7° (Epoch: 14 April)

Event Time Altitude Azimuth Distance (km) Brightness Sun altitude
Rises 18:03:51 0° 169° (S) 2,678 4.7 -7.7°
Reaches altitude 10° 18:05:57 10° 171° (S) 1,798 3.8 -8.0°
Maximum altitude 18:09:49 75° 256° (WSW) 571 1.6 -8.7°
Drops below altitude 10° 18:13:48 10° 344° (NNW) 1,845 4.3 -9.3°
Sets 18:15:59 0° 346° (NNW) 2,756 5.1 -9.7°
